Wind_Speed
28 31 35 35 32 26 27 26 28 32 34 35 36 36 35 32 29 27 24 22 20 17 14 13 13 14 13 14 15 15 14 14 13
22 32 35 33 33 33 28 29 29 30 33 34 35 34 34 32 30 29 27 24 22 20 18 18 18 17 17 16 17 17 17 17 16
23 19 33 38 34 33 30 30 30 30 29 33 33 33 34 32 30 28 28 27 25 23 21 20 20 19 18 16 18 19 20 19 19
24 17 17 24 29 32 33 32 32 29 30 30 33 34 34 34 32 31 30 29 27 25 24 23 23 21 19 17 17 18 20 22 22
27 23 17 15 19 30 36 36 31 28 32 30 27 28 30 32 31 32 32 30 28 27 26 25 24 24 21 18 17 17 17 21 24
34 31 30 28 22 35 31 35 35 30 30 30 28 25 29 29 31 33 32 30 29 29 28 27 26 26 23 20 18 17 19 19 22
27 25 25 30 30 30 37 34 36 34 31 31 30 28 27 29 30 31 31 30 30 30 29 28 27 25 23 21 21 19 19 20 21
32 30 27 33 35 37 35 36 36 35 33 29 30 30 30 28 29 29 30 30 30 30 30 28 26 26 25 24 24 22 22 21 19
34 35 33 37 40 39 36 33 35 33 29 30 30 32 30 27 25 27 28 28 29 29 28 27 25 25 25 25 25 24 22 20 19
34 31 47 51 51 46 40 28 28 29 30 28 29 21 21 22 23 25 26 26 27 27 27 27 26 24 24 23 22 22 22 22 22
27 29 32 44 45 46 39 27 31 32 31 27 27 21 20 18 18 21 23 24 24 24 25 25 25 24 22 21 20 20 21 21 23
18 20 21 30 45 41 32 33 35 36 31 29 29 23 19 19 17 17 19 20 19 19 19 19 19 19 20 20 19 20 20 21 23
13 24 30 36 41 42 34 31 35 38 34 31 29 23 18 20 20 20 20 18 18 18 19 19 20 20 20 21 22 22 23 24 26
12 24 28 30 33 33 35 34 32 40 35 32 28 25 24 22 18 16 14 13 12 14 17 20 23 26 27 27 28 29 29 30 31
16 18 20 28 32 32 36 33 29 38 35 33 30 29 27 24 21 20 20 18 19 21 23 23 23 24 25 28 29 31 32 33 35
19 18 18 19 21 25 30 34 32 37 38 35 34 32 30 28 26 25 26 25 25 24 23 25 24 25 23 21 21 23 25 28 30
23 22 23 23 22 22 24 27 30 30 41 41 40 39 35 33 31 29 30 30 29 24 22 22 29 25 21 21 22 24 24 25 27
27 26 26 26 25 22 21 20 21 23 26 30 31 32 34 34 33 32 32 32 31 29 26 28 25 25 24 23 22 24 27 27 27
28 29 27 26 26 26 25 24 24 23 23 24 25 27 29 31 34 36 36 35 35 34 33 30 28 28 31 28 28 28 29 29 27
20 23 26 27 26 28 30 29 30 30 30 30 30 31 31 32 33 33 35 37 37 36 35 35 34 33 35 33 36 33 31 29 28
Wind_Direction
229 234 230 227 232 235 226 217 205 206 207 207 211 212 212 205 207 207 206 210 214 215 212 209 216 214 208 209 210 198 190 184 178
238 237 241 229 230 236 233 229 216 211 209 210 213 216 216 212 208 208 209 210 216 217 213 212 215 214 213 212 214 208 196 190 190
244 240 235 242 237 233 232 226 222 211 214 213 215 217 219 217 215 211 211 212 216 219 220 221 221 220 218 216 214 211 204 199 200
239 231 230 235 237 231 220 225 225 213 207 210 212 212 216 217 215 215 216 214 216 220 223 224 225 227 222 216 213 215 212 208 208
233 232 242 248 228 233 225 222 220 213 208 207 207 208 213 217 216 216 218 216 215 220 224 227 225 225 226 220 214 217 219 220 218
234 244 248 250 240 229 229 223 219 210 201 204 204 205 209 212 214 218 219 218 217 219 223 226 226 225 228 226 223 217 219 222 226
224 224 231 233 237 232 225 214 215 211 212 203 203 205 208 212 214 216 218 220 221 222 225 226 227 228 230 230 229 223 217 218 223
230 229 239 234 232 227 227 216 213 212 212 214 209 209 212 214 215 217 219 219 222 223 227 230 230 231 231 231 233 231 226 222 223
237 241 246 237 228 225 223 212 212 213 203 210 215 219 221 218 216 217 218 219 221 224 226 229 230 230 234 234 233 232 233 232 230
240 241 233 232 224 215 216 217 209 208 209 208 217 222 211 216 215 215 216 218 219 221 225 229 235 235 235 236 234 231 231 234 238
267 242 227 217 208 203 211 209 198 202 209 207 211 207 192 197 200 206 209 215 219 219 223 228 231 236 239 237 232 230 231 235 244
259 209 189 193 190 195 202 195 196 200 198 202 206 208 204 201 195 191 196 202 206 212 218 223 226 230 234 237 236 237 239 241 247
238 179 180 179 182 191 198 196 194 196 193 194 196 203 204 208 208 210 213 217 221 223 226 229 233 236 235 236 239 243 244 247 251
240 187 177 184 195 201 199 199 194 196 194 191 203 208 205 194 188 190 185 187 201 216 224 230 236 240 242 242 245 249 253 255 258
213 190 189 194 196 200 205 209 202 199 194 197 201 206 196 194 198 202 206 210 218 227 229 232 234 237 240 243 247 250 254 258 262
167 180 191 196 201 202 202 202 201 199 195 197 201 207 207 211 224 228 225 224 232 233 238 237 237 239 240 245 249 253 255 259 262
159 164 172 182 187 197 202 204 209 206 207 212 214 218 222 224 235 242 230 233 238 237 250 249 239 236 245 252 257 261 263 265 266
168 171 168 167 172 186 193 199 204 210 212 217 222 226 231 235 242 246 234 236 237 244 245 257 241 244 251 261 264 268 264 264 268
171 177 182 181 180 181 186 192 203 211 216 219 223 228 233 236 239 241 245 245 246 247 250 248 245 251 262 267 274 272 266 264 268
164 173 182 189 193 195 196 198 203 208 213 218 224 229 234 240 245 247 247 247 250 253 252 252 256 258 263 267 274 267 266 267 270
Height
3130 3133 3137 3142 3147 3151 3156 3161 3164 3168 3171 3176 3182 3187 3191 3195 3200 3204 3208 3211 3215 3219 3223 3226 3228 3230 3232 3233 3235 3236 3238 3240 3242
3123 3127 3131 3137 3143 3147 3152 3156 3160 3164 3168 3172 3177 3183 3188 3191 3195 3199 3204 3208 3211 3215 3219 3223 3225 3227 3229 3231 3233 3235 3237 3239 3241
3119 3122 3126 3130 3138 3143 3147 3151 3156 3161 3165 3169 3174 3179 3183 3187 3192 3196 3200 3203 3207 3212 3216 3219 3222 3224 3226 3229 3231 3233 3235 3237 3239
3115 3118 3122 3126 3129 3137 3142 3147 3151 3155 3160 3164 3167 3172 3178 3182 3186 3191 3195 3199 3204 3208 3212 3215 3218 3221 3224 3226 3228 3230 3232 3234 3236
3111 3114 3117 3121 3125 3129 3136 3141 3146 3149 3154 3158 3162 3168 3173 3178 3182 3186 3189 3194 3199 3204 3208 3211 3215 3217 3219 3223 3225 3226 3228 3230 3233
3106 3109 3113 3116 3120 3122 3128 3135 3140 3145 3149 3153 3158 3162 3167 3172 3176 3180 3184 3189 3194 3199 3202 3207 3210 3213 3216 3219 3221 3223 3225 3226 3228
3097 3101 3105 3109 3112 3115 3122 3129 3135 3141 3145 3149 3154 3158 3162 3166 3170 3175 3180 3185 3189 3193 3197 3201 3205 3209 3212 3215 3217 3219 3221 3223 3224
3089 3092 3096 3099 3105 3110 3115 3122 3129 3135 3141 3147 3150 3153 3157 3160 3166 3171 3175 3179 3183 3188 3191 3196 3200 3204 3207 3210 3212 3215 3217 3220 3222
3078 3082 3085 3090 3097 3104 3108 3115 3123 3129 3135 3140 3145 3148 3152 3157 3160 3165 3169 3174 3178 3183 3187 3190 3195 3198 3202 3205 3208 3211 3214 3216 3218
3068 3071 3072 3075 3084 3095 3102 3109 3117 3124 3130 3136 3141 3144 3148 3151 3154 3159 3164 3169 3173 3178 3182 3186 3189 3193 3196 3200 3203 3207 3210 3212 3214
3060 3058 3059 3064 3074 3088 3097 3104 3112 3118 3124 3131 3137 3140 3143 3147 3150 3155 3159 3164 3168 3173 3177 3181 3184 3188 3191 3194 3198 3202 3205 3208 3208
3052 3052 3054 3059 3071 3082 3091 3098 3106 3114 3120 3126 3132 3136 3139 3143 3147 3152 3155 3159 3164 3168 3172 3176 3179 3183 3186 3189 3192 3196 3199 3201 3201
3049 3052 3057 3063 3071 3078 3086 3094 3101 3109 3116 3121 3126 3132 3136 3140 3144 3149 3152 3157 3161 3165 3168 3172 3175 3177 3181 3184 3187 3190 3192 3194 3194
3049 3053 3057 3063 3069 3076 3083 3090 3097 3105 3112 3118 3124 3129 3133 3137 3141 3145 3150 3154 3157 3160 3163 3166 3168 3172 3175 3178 3180 3183 3184 3185 3186
3049 3053 3057 3062 3066 3073 3080 3086 3093 3101 3108 3114 3119 3124 3129 3134 3138 3142 3145 3149 3152 3154 3157 3159 3162 3165 3168 3170 3173 3175 3177 3177 3178
3049 3051 3054 3058 3063 3069 3075 3082 3089 3095 3103 3109 3114 3119 3123 3128 3132 3136 3140 3143 3146 3148 3150 3153 3155 3158 3161 3164 3167 3169 3169 3170 3170
3049 3052 3054 3057 3062 3067 3072 3078 3084 3091 3097 3102 3108 3114 3119 3122 3126 3130 3132 3136 3139 3141 3145 3147 3149 3152 3155 3157 3159 3161 3161 3162 3162
3049 3053 3057 3059 3063 3068 3072 3076 3082 3087 3092 3098 3103 3108 3113 3117 3121 3124 3126 3129 3132 3135 3139 3142 3144 3146 3148 3149 3150 3152 3152 3153 3153
3046 3051 3057 3060 3063 3067 3071 3075 3080 3085 3089 3093 3097 3102 3106 3110 3113 3116 3119 3121 3125 3128 3131 3134 3135 3136 3138 3139 3141 3142 3143 3144 3144
3043 3047 3051 3057 3061 3064 3068 3073 3077 3081 3084 3088 3092 3096 3099 3102 3105 3108 3111 3114 3117 3120 3122 3124 3125 3125 3128 3130 3132 3133 3133 3133 3134